When you browse on this site, cookies collect data to enhance your experience and personalize the content and advertising you see.
Visit our Privacy Policy to learn more. By continuing to use the site, you agree to this use of cookies and data.
  • Em Portugal
  • Lista de países
  • Para 7 dias
  • Temperatura da água
  • Mapas de satélite
  • Mapa do tempo
  • Widgets de tempo
  • user-avatar
    Iniciar Sessão

    Previsão horária em Lubomin

    Hoje, 24 Março, Domingo

    Tempo Temperatura Precipitação Vento Pressão Humidade
    00:00 +9°C° 0 mm 3 m/s 728 mmHg 90%
    01:00 +8°C° 0 mm 2 m/s 729 mmHg 88%
    02:00 +7°C° 0 mm 2 m/s 728 mmHg 88%
    03:00 +7°C° 0 mm 2 m/s 728 mmHg 87%
    04:00 +6°C° 0 mm 2 m/s 728 mmHg 87%
    05:00 +6°C° 0 mm 2 m/s 728 mmHg 88%
    06:00 +5°C° 0 mm 2 m/s 728 mmHg 89%
    07:00 +6°C° 0 mm 1 m/s 728 mmHg 89%
    08:00 +6°C° 0 mm 2 m/s 728 mmHg 82%
    09:00 +7°C° 0 mm 2 m/s 728 mmHg 74%
    10:00 +8°C° 0 mm 2 m/s 728 mmHg 66%
    11:00 +8°C° 0 mm 2 m/s 727 mmHg 64%
    12:00 +9°C° 0 mm 2 m/s 727 mmHg 62%
    13:00 +10°C° 0 mm 1 m/s 726 mmHg 61%
    14:00 +10°C° 0.1 mm 1 m/s 726 mmHg 63%
    15:00 +9°C° 0.1 mm 1 m/s 725 mmHg 65%
    16:00 +9°C° 0.1 mm 1 m/s 725 mmHg 68%
    17:00 +8°C° 0.1 mm 1 m/s 724 mmHg 71%
    18:00 +8°C° 0.1 mm 1 m/s 724 mmHg 73%
    19:00 +7°C° 0.1 mm 1 m/s 724 mmHg 76%
    20:00 +7°C° 0 mm 1 m/s 723 mmHg 78%
    21:00 +7°C° 0 mm 1 m/s 723 mmHg 80%
    22:00 +6°C° 0 mm 1 m/s 723 mmHg 82%
    23:00 +6°C° 0 mm 1 m/s 723 mmHg 83%

    Amanhã, 25 Março, Segunda-feira

    Tempo Temperatura Precipitação Vento Pressão Humidade
    00:00 +6°C° 0 mm 1 m/s 722 mmHg 83%
    01:00 +4°C° 0 mm 2 m/s 722 mmHg 84%
    02:00 +4°C° 0 mm 2 m/s 721 mmHg 86%
    03:00 +3°C° 0 mm 2 m/s 721 mmHg 88%
    04:00 +2°C° 0 mm 2 m/s 721 mmHg 89%
    05:00 +2°C° 0 mm 2 m/s 720 mmHg 88%
    06:00 +2°C° 0 mm 3 m/s 720 mmHg 86%
    07:00 +2°C° 0 mm 3 m/s 720 mmHg 84%
    08:00 +3°C° 0 mm 4 m/s 720 mmHg 75%
    09:00 +3°C° 0 mm 5 m/s 719 mmHg 66%
    10:00 +4°C° 0 mm 6 m/s 719 mmHg 56%
    11:00 +3°C° 0.6 mm 6 m/s 719 mmHg 63%
    12:00 +2°C° 0.6 mm 6 m/s 719 mmHg 70%
    13:00 +1°C° 0.6 mm 6 m/s 719 mmHg 76%
    14:00 +2°C° 0.1 mm 6 m/s 719 mmHg 70%
    15:00 +3°C° 0.1 mm 6 m/s 719 mmHg 64%
    16:00 +3°C° 0.1 mm 6 m/s 719 mmHg 58%
    17:00 +2°C° 0 mm 5 m/s 720 mmHg 65%
    18:00 +1°C° 0 mm 4 m/s 720 mmHg 71%
    19:00 +1°C° 0 mm 3 m/s 721 mmHg 77%
    20:00 +1°C° 0 mm 3 m/s 721 mmHg 80%
    21:00 0°C° 0 mm 3 m/s 722 mmHg 84%
    22:00 0°C° 0 mm 3 m/s 723 mmHg 87%
    23:00 -1°C° 0 mm 2 m/s 723 mmHg 89%

    Depois de amanhã, 26 Março, Terça-feira

    Tempo Temperatura Precipitação Vento Pressão Humidade
    00:00 -1°C° 0 mm 2 m/s 724 mmHg 91%
    01:00 -1°C° 0 mm 2 m/s 725 mmHg 94%
    02:00 -1°C° 0 mm 3 m/s 725 mmHg 94%
    03:00 -1°C° 0 mm 3 m/s 726 mmHg 94%
    04:00 -1°C° 0 mm 3 m/s 726 mmHg 94%
    05:00 -1°C° 0 mm 3 m/s 726 mmHg 92%
    06:00 -1°C° 0 mm 3 m/s 727 mmHg 91%
    07:00 -1°C° 0 mm 3 m/s 727 mmHg 90%
    08:00 +1°C° 0 mm 3 m/s 728 mmHg 81%
    09:00 +1°C° 0 mm 4 m/s 728 mmHg 71%
    10:00 +4°C° 0 mm 4 m/s 728 mmHg 62%
    11:00 +5°C° 0 mm 5 m/s 728 mmHg 59%
    12:00 +6°C° 0 mm 5 m/s 728 mmHg 56%
    13:00 +7°C° 0 mm 6 m/s 728 mmHg 53%
    14:00 +5°C° 0 mm 6 m/s 728 mmHg 55%
    15:00 +5°C° 0 mm 6 m/s 727 mmHg 58%
    16:00 +4°C° 0 mm 7 m/s 727 mmHg 60%
    17:00 +3°C° 0 mm 6 m/s 727 mmHg 66%
    18:00 +2°C° 0 mm 5 m/s 727 mmHg 72%
    19:00 0°C° 0 mm 5 m/s 728 mmHg 77%
    20:00 0°C° 0 mm 4 m/s 728 mmHg 78%
    21:00 0°C° 0 mm 4 m/s 728 mmHg 79%
    22:00 +1°C° 0 mm 3 m/s 729 mmHg 79%
    23:00 0°C° 0 mm 3 m/s 729 mmHg 82%

    27 Março, Quarta-feira

    Tempo Temperatura Precipitação Vento Pressão Humidade
    00:00 +1°C° 0 mm 2 m/s 729 mmHg 85%
    01:00 +1°C° 0 mm 2 m/s 729 mmHg 88%
    02:00 -1°C° 0 mm 2 m/s 729 mmHg 90%
    03:00 -1°C° 0 mm 2 m/s 729 mmHg 92%
    04:00 -1°C° 0 mm 2 m/s 729 mmHg 94%
    05:00 -1°C° 0 mm 2 m/s 729 mmHg 91%
    06:00 +1°C° 0 mm 2 m/s 729 mmHg 89%
    07:00 +1°C° 0 mm 2 m/s 729 mmHg 87%
    08:00 +3°C° 0 mm 2 m/s 730 mmHg 79%
    09:00 +5°C° 0 mm 2 m/s 730 mmHg 71%
    10:00 +5°C° 0 mm 3 m/s 730 mmHg 63%
    11:00 +7°C° 0 mm 3 m/s 730 mmHg 64%
    12:00 +7°C° 0 mm 3 m/s 730 mmHg 65%
    13:00 +7°C° 0 mm 3 m/s 730 mmHg 65%
    14:00 +7°C° 0 mm 3 m/s 730 mmHg 64%
    15:00 +7°C° 0 mm 3 m/s 730 mmHg 64%
    16:00 +7°C° 0 mm 3 m/s 730 mmHg 63%
    17:00 +5°C° 0 mm 3 m/s 730 mmHg 68%
    18:00 +5°C° 0 mm 2 m/s 730 mmHg 74%
    19:00 +5°C° 0 mm 1 m/s 730 mmHg 80%
    20:00 +4°C° 0.4 mm 2 m/s 730 mmHg 82%
    21:00 +4°C° 0.4 mm 2 m/s 730 mmHg 84%
    22:00 +4°C° 0.4 mm 2 m/s 730 mmHg 86%
    23:00 +5°C° 0.3 mm 1 m/s 730 mmHg 88%

    28 Março, Quinta-feira

    Tempo Temperatura Precipitação Vento Pressão Humidade
    00:00 +5°C° 0.3 mm 1 m/s 730 mmHg 91%
    01:00 +5°C° 0.3 mm 1 m/s 731 mmHg 93%
    02:00 +4°C° 0 mm 1 m/s 730 mmHg 93%
    03:00 +4°C° 0 mm 1 m/s 730 mmHg 94%
    04:00 +4°C° 0 mm 1 m/s 730 mmHg 94%
    05:00 +4°C° 0 mm 1 m/s 731 mmHg 93%
    06:00 +4°C° 0 mm 1 m/s 731 mmHg 92%
    07:00 +5°C° 0 mm 1 m/s 731 mmHg 91%
    08:00 +6°C° 0 mm 1 m/s 731 mmHg 85%
    09:00 +7°C° 0 mm 1 m/s 732 mmHg 79%
    10:00 +8°C° 0 mm 1 m/s 732 mmHg 72%
    11:00 +9°C° 0.1 mm 1 m/s 732 mmHg 69%
    12:00 +9°C° 0.1 mm 1 m/s 732 mmHg 66%
    13:00 +10°C° 0.1 mm 1 m/s 732 mmHg 62%
    14:00 +10°C° 0 mm 1 m/s 732 mmHg 64%
    15:00 +9°C° 0 mm 2 m/s 732 mmHg 65%
    16:00 +9°C° 0 mm 2 m/s 732 mmHg 66%
    17:00 +7°C° 0 mm 2 m/s 732 mmHg 72%
    18:00 +7°C° 0 mm 1 m/s 732 mmHg 78%
    19:00 +6°C° 0 mm 1 m/s 732 mmHg 85%
    20:00 +6°C° 0 mm 1 m/s 732 mmHg 87%
    21:00 +5°C° 0 mm 1 m/s 732 mmHg 89%
    22:00 +4°C° 0 mm 1 m/s 732 mmHg 91%
    23:00 +4°C° 0 mm 1 m/s 732 mmHg 91%

    29 Março, Sexta-feira

    Tempo Temperatura Precipitação Vento Pressão Humidade
    00:00 +4°C° 0 mm 1 m/s 732 mmHg 91%
    01:00 +4°C° 0 mm 1 m/s 732 mmHg 91%
    02:00 +4°C° 0 mm 1 m/s 732 mmHg 91%
    03:00 +3°C° 0 mm 1 m/s 732 mmHg 92%
    04:00 +3°C° 0 mm 1 m/s 732 mmHg 92%
    05:00 +4°C° 0 mm 1 m/s 732 mmHg 91%
    06:00 +4°C° 0 mm 1 m/s 732 mmHg 91%
    07:00 +5°C° 0 mm 1 m/s 733 mmHg 90%
    08:00 +7°C° 0 mm 1 m/s 733 mmHg 82%
    09:00 +9°C° 0 mm 1 m/s 733 mmHg 73%
    10:00 +10°C° 0 mm 1 m/s 733 mmHg 65%
    11:00 +11°C° 0 mm 1 m/s 733 mmHg 61%
    12:00 +12°C° 0 mm 1 m/s 733 mmHg 56%
    13:00 +13°C° 0 mm 2 m/s 732 mmHg 51%
    14:00 +13°C° 0 mm 2 m/s 732 mmHg 51%
    15:00 +13°C° 0 mm 2 m/s 732 mmHg 51%
    16:00 +13°C° 0 mm 2 m/s 731 mmHg 51%
    17:00 +10°C° 0 mm 2 m/s 731 mmHg 59%
    18:00 +10°C° 0 mm 1 m/s 731 mmHg 68%
    19:00 +8°C° 0 mm 1 m/s 730 mmHg 77%
    20:00 +7°C° 0 mm 1 m/s 731 mmHg 80%
    21:00 +7°C° 0 mm 1 m/s 731 mmHg 84%
    22:00 +5°C° 0 mm 0 m/s 731 mmHg 87%
    23:00 +5°C° 0 mm 0 m/s 730 mmHg 88%
    Mostrar mais